Tracking 35274 objects as of 11-Sep-2026
HD Live streaming from Space Station
objects crossing your sky now

CONNECTA IOT-12

Track CONNECTA IOT-12 now!
10-day predictions
CONNECTA IOT-12 is classified as:


NORAD ID: 64553
Int'l Code: 2025-135AB
Launch date: June 23, 2025
Source: Turkey (TURK)
Launch site: AIR FORCE WESTERN TEST RANGE (AFWTR)

Uplink (MHz):
Downlink (MHz): 401.540
Beacon (MHz):
Mode: 4k8 GMSK
Call sign: CNT012
Status: Active

Your satellite tracking list
Your tracking list is empty




NASA's NSSDC Master Catalog

Two Line Element Set (TLE):
1 64553U 25135AB  26253.28988479  .00002713  00000-0  12551-3 0  9992
2 64553  97.4812   8.1208 0002129  92.3914 267.7566 15.20995723 67800
Source of the keplerian elements: AFSPC